[[{"header":{"parameterUnit":"m.s-1","parameterCategory":1,"la1":30.2991,"la2":30.254,"lo1":-89.0895,"lo2":-89.0444,"dy":0.0017,"dx":0.0017,"nx":28,"ny":28,"refTime":"2025-11-19T03:00:00:Z","depth":0,"parameterNumber":2,"parameterNumberName":"U-component_of_WINDS"},"data":[0,0,0,0,0,0,0,0,0,0,0,0,0,0,0,0,0,0,0,0,0,0,0,0,0,0,0,0,0,0,0,0,0,0,0,0,0,0,0,0,0,0,0,0,0,0,0,0,0,0,0,0,0,0,0,0,0,0,-0.0226,-0.0226,0,-0.0197,-0.0197,-0.0197,-0.0159,-0.0158,-0.0158,-0.0157,-0.0129,-0.0129,-0.0129,0,0,0,0,0,0,0,0,0,0,0,0,0,-0.025,-0.025,-0.0226,-0.0226,-0.0225,-0.0197,-0.0197,-0.0197,-0.0159,-0.0158,-0.0157,-0.0157,-0.0129,-0.0129,-0.0129,0,0,0,0,0,0,0,0,0,0,0,0,0,-0.0233,-0.025,-0.0226,-0.0203,-0.0201,-0.0198,-0.0197,-0.0197,-0.0159,-0.0158,-0.0157,-0.0156,-0.0129,-0.0129,-0.0129,-0.0146,0,0,-0.0128,-0.0128,0,0,0,0,0,0,0,0,-0.0234,-0.0232,-0.0207,-0.0205,-0.0202,-0.0181,-0.0195,-0.018,-0.0159,-0.0175,-0.0157,-0.0156,-0.0147,-0.0145,-0.0142,-0.0145,-0.0144,-0.0128,-0.0128,-0.0128,-0.0128,0,0,0,0,0,0,0,-0.0235,-0.0233,-0.0215,-0.0207,-0.0204,-0.0195,-0.0191,-0.0192,-0.0167,-0.0174,-0.0171,-0.0168,-0.0146,-0.0142,-0.0141,-0.0143,-0.0128,-0.0128,-0.0128,-0.0128,-0.0161,-0.0162,0,0,0,0,0,0,-0.0239,-0.0234,-0.0216,-0.0214,-0.0216,-0.0195,-0.0191,-0.0189,-0.0167,-0.0162,-0.0169,-0.0166,-0.0143,-0.0142,-0.014,-0.016,-0.0128,-0.0128,-0.0127,-0.016,-0.0161,-0.0162,0,0,0,0,0,0,-0.024,-0.0238,-0.0217,-0.0223,-0.022,-0.0196,-0.0193,-0.0188,-0.0185,-0.0163,-0.0158,-0.017,-0.0142,-0.014,-0.0145,-0.0159,-0.0128,-0.0127,-0.0159,-0.016,-0.0162,-0.02,0,0,0,0,0,0,-0.0241,-0.0239,-0.0244,-0.0224,-0.022,-0.0222,-0.0194,-0.0189,-0.0185,-0.0181,-0.0163,-0.0159,-0.0142,-0.0146,-0.0145,-0.0158,-0.0127,-0.0157,-0.0159,-0.0161,-0.0198,-0.0203,-0.0207,0,0,0,0,0,-0.0242,-0.0256,-0.0245,-0.0243,-0.0226,-0.0223,-0.0221,-0.02,-0.0186,-0.0192,-0.0178,-0.016,-0.0157,-0.0147,-0.0145,-0.0158,-0.0156,-0.0159,-0.0161,-0.0196,-0.0202,-0.0207,0,0,0,0,0,0,-0.028,-0.0253,-0.024,-0.0248,-0.0238,-0.0216,-0.0223,-0.0207,-0.0201,-0.0198,-0.0173,-0.0169,-0.0178,-0.0168,-0.0157,-0.0175,-0.0154,-0.0156,-0.0181,-0.0187,-0.0192,-0.0194,-0.0127,0,0,0,0,0,-0.0289,-0.0288,-0.0265,-0.0274,-0.027,-0.0248,-0.0245,-0.023,-0.0219,-0.0214,-0.0201,-0.0191,-0.0188,-0.0187,-0.0183,-0.0196,-0.0192,-0.0204,-0.0209,-0.0213,-0.0216,-0.0224,-0.0229,-0.017,-0.017,-0.017,0,0,-0.0308,-0.0293,-0.0294,-0.0281,-0.0272,-0.0272,-0.0244,-0.0245,-0.0245,-0.0215,-0.0219,-0.0208,-0.0196,-0.0205,-0.0209,-0.0198,-0.0232,-0.0216,-0.022,-0.022,-0.0227,-0.0232,-0.0238,-0.0171,-0.0171,-0.0171,0,0,-0.0343,-0.0331,-0.0339,-0.033,-0.0315,-0.0301,-0.0302,-0.0283,-0.0275,-0.0279,-0.0256,-0.0256,-0.0252,-0.0244,-0.024,-0.0273,-0.0257,-0.0273,-0.0299,-0.0306,-0.0311,-0.0315,-0.0329,-0.0334,-0.0275,-0.0275,-0.0275,0,-0.0369,-0.0368,-0.0344,-0.0347,-0.0343,-0.0315,-0.0323,-0.0315,-0.0301,-0.0299,-0.0286,-0.0281,-0.027,-0.0279,-0.0287,-0.0284,-0.0286,-0.0275,-0.0312,-0.0316,-0.032,-0.0332,-0.0337,-0.0277,-0.0277,-0.0277,-0.0277,0,-0.0401,-0.04,-0.0408,-0.0395,-0.0391,-0.0396,-0.0375,-0.0374,-0.036,-0.0347,-0.0352,-0.0338,-0.0332,-0.0332,-0.0318,-0.0339,-0.0333,-0.0317,-0.0295,-0.0328,-0.0339,-0.0344,-0.028,-0.028,-0.0279,-0.0278,0,0,-0.0459,-0.0433,-0.0437,-0.0431,-0.0413,-0.0413,-0.0418,-0.0411,-0.0412,-0.0403,-0.0407,-0.0404,-0.0389,-0.0384,-0.0369,-0.0376,-0.0405,-0.0359,-0.0358,-0.0369,-0.0429,-0.0442,-0.0448,-0.0394,-0.0394,-0.0395,-0.0431,0,-0.0492,-0.0498,-0.0478,-0.0489,-0.0489,-0.0463,-0.0467,-0.0458,-0.0446,-0.0445,-0.0432,-0.0431,-0.0411,-0.0408,-0.0414,-0.0401,-0.0417,-0.0397,-0.0399,-0.0399,-0.0404,-0.0454,-0.0467,-0.0502,-0.0435,-0.0436,-0.0436,0,-0.0531,-0.0524,-0.0536,-0.0519,-0.0519,-0.0523,-0.0516,-0.0515,-0.0504,-0.0495,-0.049,-0.0472,-0.0476,-0.0455,-0.0462,-0.0449,-0.0448,-0.0442,-0.0443,-0.0443,-0.042,-0.0457,-0.0512,-0.0518,-0.0443,-0.0442,-0.0442,0,-0.0574,-0.0568,-0.0575,-0.057,-0.055,-0.0554,-0.0546,-0.0534,-0.0532,-0.0526,-0.0524,-0.0519,-0.0517,-0.0513,-0.0495,-0.0481,-0.0505,-0.0482,-0.0498,-0.0499,-0.0505,-0.0505,-0.0563,-0.0503,-0.0503,-0.0503,-0.0503,0,-0.0614,-0.0623,-0.0594,-0.0598,-0.0607,-0.0584,-0.0594,-0.0584,-0.0574,-0.0576,-0.0553,-0.0556,-0.0531,-0.0531,-0.0517,-0.0526,-0.0524,-0.0518,-0.0515,-0.0521,-0.0522,-0.0521,-0.0519,-0.0504,-0.0504,-0.0503,-0.0503,0,-0.0664,-0.0645,-0.0651,-0.0632,-0.0627,-0.0635,-0.0619,-0.0623,-0.0609,-0.0613,-0.0612,-0.0592,-0.0591,-0.0573,-0.0568,-0.0559,-0.0574,-0.0565,-0.0578,-0.0575,-0.0594,-0.0593,-0.0653,-0.0661,-0.0595,-0.0596,-0.0596,0,-0.0691,-0.0697,-0.0679,-0.0679,-0.0672,-0.0672,-0.067,-0.0647,-0.0646,-0.0635,-0.064,-0.0638,-0.0635,-0.0635,-0.0621,-0.0617,-0.0609,-0.0631,-0.0609,-0.0616,-0.0611,-0.0612,-0.0613,-0.0636,-0.0637,-0.0637,-0.0638,0,-0.0742,-0.0733,-0.073,-0.0725,-0.0723,-0.0717,-0.071,-0.0712,-0.0688,-0.0687,-0.0687,-0.0684,-0.068,-0.0678,-0.0673,-0.0665,-0.0648,-0.0645,-0.0649,-0.0656,-0.0664,-0.0661,-0.0592,-0.0644,-0.0643,-0.0643,-0.0642,-0.0642,-0.0783,-0.0787,-0.0776,-0.0774,-0.0766,-0.0761,-0.0764,-0.0751,-0.075,-0.0744,-0.0731,-0.0733,-0.0723,-0.0713,-0.0708,-0.0709,-0.0699,-0.0704,-0.0706,-0.0708,-0.0712,-0.0662,-0.0708,-0.0708,-0.0708,-0.0707,-0.0707,0,-0.0834,-0.0825,-0.0823,-0.0815,-0.0814,-0.0797,-0.0789,-0.079,-0.0791,-0.0783,-0.078,-0.078,-0.0779,-0.0764,-0.0761,-0.0766,-0.0758,-0.0766,-0.0766,-0.0765,-0.0721,-0.0718,-0.0772,-0.0772,-0.0772,-0.0772,-0.0772,-0.0772,-0.086,-0.0868,-0.0857,-0.0861,-0.0852,-0.0854,-0.0851,-0.0846,-0.084,-0.084,-0.0839,-0.0829,-0.0819,-0.0815,-0.0813,-0.0809,-0.081,-0.0821,-0.0814,-0.0774,-0.0768,-0.0762,-0.0759,-0.0821,-0.0821,-0.0858,-0.0859,-0.0859]},{"header":{"parameterUnit":"m.s-1","parameterCategory":1,"la1":30.2991,"la2":30.254,"lo1":-89.0895,"lo2":-89.0444,"dy":0.0017,"dx":0.0017,"nx":28,"ny":28,"refTime":"2025-11-19T03:00:00:Z","depth":0,"parameterNumber":3,"parameterNumberName":"V-component_of_WINDS"},"data":[0,0,0,0,0,0,0,0,0,0,0,0,0,0,0,0,0,0,0,0,0,0,0,0,0,0,0,0,0,0,0,0,0,0,0,0,0,0,0,0,0,0,0,0,0,0,0,0,0,0,0,0,0,0,0,0,0,0,0.6481,0.6482,0,0.6502,0.6502,0.6503,0.6526,0.6526,0.6526,0.6527,0.6546,0.6546,0.6546,0,0,0,0,0,0,0,0,0,0,0,0,0,0.646,0.646,0.6481,0.6482,0.6482,0.6502,0.6502,0.6503,0.6526,0.6526,0.6526,0.6527,0.6546,0.6546,0.6546,0,0,0,0,0,0,0,0,0,0,0,0,0,0.6474,0.646,0.6481,0.6496,0.6497,0.6502,0.6502,0.6503,0.6526,0.6526,0.6527,0.6527,0.6546,0.6546,0.6546,0.6538,0,0,0.6547,0.6547,0,0,0,0,0,0,0,0,0.6473,0.6475,0.6494,0.6495,0.6497,0.6512,0.6502,0.6514,0.6525,0.6515,0.6527,0.6527,0.6534,0.6535,0.6538,0.6538,0.6539,0.6547,0.6547,0.6547,0.6547,0,0,0,0,0,0,0,0.6472,0.6474,0.649,0.6494,0.6496,0.6501,0.6503,0.6504,0.6521,0.6516,0.6518,0.652,0.6535,0.6538,0.6539,0.654,0.6547,0.6547,0.6548,0.6548,0.6534,0.6533,0,0,0,0,0,0,0.6469,0.6473,0.6489,0.649,0.6486,0.6501,0.6504,0.6506,0.6521,0.6524,0.6519,0.6521,0.6537,0.6538,0.6539,0.653,0.6547,0.6548,0.6548,0.6534,0.6534,0.6533,0,0,0,0,0,0,0.6469,0.647,0.6488,0.6482,0.6485,0.6501,0.6504,0.6507,0.6509,0.6524,0.6527,0.6519,0.6537,0.6539,0.6538,0.6531,0.6548,0.6548,0.6535,0.6534,0.6533,0.6512,0,0,0,0,0,0,0.6468,0.647,0.6467,0.6482,0.6485,0.6487,0.6503,0.6507,0.651,0.6512,0.6524,0.6527,0.6538,0.6537,0.6538,0.6532,0.6548,0.6536,0.6535,0.6534,0.6513,0.651,0.6508,0,0,0,0,0,0.6467,0.646,0.6467,0.6469,0.6482,0.6486,0.6488,0.6501,0.6509,0.6506,0.6516,0.6527,0.6532,0.6537,0.6538,0.6532,0.6536,0.6535,0.6534,0.6514,0.6511,0.6508,0,0,0,0,0,0,0.6444,0.6462,0.647,0.6468,0.6475,0.649,0.6487,0.6497,0.6502,0.6504,0.652,0.6522,0.6519,0.6525,0.6531,0.6524,0.6535,0.6534,0.652,0.6517,0.6514,0.6513,0.6548,0,0,0,0,0,0.6438,0.6441,0.6457,0.6453,0.6457,0.6471,0.6474,0.6483,0.6491,0.6495,0.6504,0.6511,0.6514,0.6516,0.652,0.6514,0.6517,0.651,0.6507,0.6505,0.6504,0.6501,0.6499,0.6529,0.6529,0.6529,0,0,0.6427,0.6438,0.6438,0.6449,0.6456,0.6458,0.6474,0.6475,0.6476,0.6495,0.6494,0.6501,0.651,0.6507,0.6506,0.6512,0.6496,0.6504,0.6502,0.6502,0.65,0.6497,0.6494,0.6528,0.6528,0.6529,0,0,0.6408,0.6416,0.6414,0.6421,0.6431,0.6441,0.6441,0.6454,0.646,0.646,0.6474,0.6475,0.648,0.6486,0.649,0.6472,0.6482,0.6473,0.6459,0.6456,0.6454,0.6452,0.6446,0.6443,0.6472,0.6472,0.6472,0,0.6392,0.6396,0.6411,0.6412,0.6416,0.6433,0.6431,0.6436,0.6447,0.6449,0.6456,0.6463,0.647,0.6469,0.6464,0.6467,0.6466,0.6472,0.6453,0.6451,0.645,0.6444,0.6442,0.6471,0.6471,0.6471,0.6471,0,0.6377,0.6379,0.6376,0.6387,0.6391,0.639,0.6404,0.6406,0.6415,0.6424,0.6423,0.6433,0.6439,0.6439,0.6448,0.6438,0.6442,0.6451,0.6462,0.6445,0.644,0.6438,0.6469,0.6469,0.647,0.647,0,0,0.6343,0.6363,0.6361,0.6367,0.638,0.6382,0.6381,0.6388,0.6389,0.6396,0.6395,0.6399,0.6408,0.6412,0.6421,0.6419,0.6405,0.6428,0.6429,0.6424,0.6395,0.6388,0.6385,0.6411,0.6411,0.6411,0.6394,0,0.6326,0.6327,0.6341,0.6338,0.634,0.6357,0.6356,0.6364,0.6372,0.6375,0.6383,0.6386,0.6397,0.6399,0.6398,0.6407,0.6399,0.6408,0.6411,0.6411,0.6408,0.6383,0.6376,0.6359,0.6392,0.6392,0.6392,0,0.6307,0.6313,0.6311,0.6324,0.6325,0.6325,0.6332,0.6334,0.6343,0.6349,0.6354,0.6365,0.6364,0.6376,0.6375,0.6381,0.6383,0.6388,0.6387,0.6388,0.64,0.6383,0.6355,0.6352,0.6389,0.6389,0.6389,0,0.6282,0.6291,0.629,0.6294,0.631,0.6309,0.6315,0.6324,0.6327,0.6333,0.6335,0.6341,0.6343,0.6347,0.6359,0.6366,0.6357,0.6369,0.6362,0.6362,0.636,0.636,0.6331,0.6361,0.6361,0.6361,0.6361,0,0.6262,0.626,0.628,0.6279,0.6277,0.6292,0.629,0.6297,0.6305,0.6307,0.6321,0.6321,0.6337,0.6339,0.6348,0.6346,0.6347,0.6352,0.6354,0.6351,0.635,0.6352,0.6354,0.636,0.636,0.636,0.636,0,0.6235,0.6248,0.6249,0.6263,0.6267,0.6265,0.6277,0.6277,0.6286,0.6287,0.6288,0.6302,0.6306,0.6318,0.6324,0.633,0.6325,0.633,0.6322,0.6324,0.6316,0.6317,0.6288,0.6285,0.6316,0.6316,0.6316,0,0.6221,0.622,0.6235,0.6237,0.6243,0.6246,0.6249,0.6264,0.6266,0.6276,0.6275,0.6279,0.6284,0.6288,0.6298,0.6303,0.6308,0.6298,0.6309,0.6305,0.6308,0.6308,0.6308,0.6295,0.6295,0.6295,0.6294,0,0.6195,0.6202,0.6207,0.6214,0.6217,0.6223,0.623,0.6231,0.6247,0.6249,0.6253,0.6256,0.6263,0.6267,0.6273,0.6279,0.6289,0.6291,0.6289,0.6286,0.6281,0.6284,0.6316,0.6291,0.6292,0.6292,0.6292,0.6292,0.6175,0.6174,0.6185,0.6189,0.6196,0.6202,0.6203,0.6212,0.6216,0.6223,0.6231,0.6234,0.6242,0.6252,0.6257,0.6259,0.6264,0.6262,0.6262,0.6261,0.6259,0.6281,0.626,0.626,0.626,0.626,0.626,0,0.615,0.6157,0.6161,0.6171,0.6174,0.6184,0.6192,0.6194,0.6197,0.6204,0.6208,0.6212,0.6216,0.6227,0.6232,0.6232,0.6236,0.6232,0.6233,0.6234,0.6254,0.6255,0.6228,0.6228,0.6228,0.6228,0.6228,0.6228,0.6137,0.6137,0.6145,0.6148,0.6156,0.6159,0.6163,0.6168,0.6174,0.6179,0.6182,0.6189,0.6198,0.6204,0.6208,0.6211,0.6212,0.6206,0.6211,0.6229,0.6232,0.6235,0.6236,0.6206,0.6206,0.619,0.619,0.619]}]]